Regional Weather Roundup
Issued by NWS

Home | Current Version | Previous Version | Graphics & Text | Print | Product List | Glossary On
Versions: 1 2 3 4 5 6 7 8 9 10 11 12 13 14 15 16 17 18 19 20 21 22 23 24 25 26 27 28 29 30 31 32 33 34 35 36 37 38 39 40 41 42 43 44 45 46 47 48 49 50
213
ASUS43 KBIS 160702
RWRND

NORTH DAKOTA REGIONAL WEATHER ROUNDUP
NATIONAL WEATHER SERVICE BISMARCK ND
200 AM CDT WED AUG 16 2017

NOTE: "FAIR" INDICATES FEW OR NO CLOUDS BELOW 12,000 FEET WITH NO
SIGNIFICANT WEATHER AND/OR OBSTRUCTIONS TO VISIBILITY.


NDZ001>003-009>011-017-160800-
NORTHWEST NORTH DAKOTA

CITY           SKY/WX    TMP DP  RH WIND       PRES   REMARKS
WILLISTON      CLEAR     60  57  89 NE3       29.90R
MINOT          FOG       59  58  96 CALM      29.89R VSB 1/4
MINOT AFB      FOG       54  54  99 CALM      29.88R VSB 1/4
$$

NDZ018>021-031>035-040>046-160800-
SOUTHWEST NORTH DAKOTA

CITY           SKY/WX    TMP DP  RH WIND       PRES   REMARKS
BISMARCK       CLOUDY    64  62  93 NW7       29.86S
DICKINSON      CLOUDY    60  60 100 NW3       29.92R FOG
GARRISON         N/A     57  57 100 N5        29.89R
HETTINGER ARPT FOG       59  57  93 NW6       29.94R VSB 3/4
$$

NDZ004>008-012>016-024-026-027-054-160800-
NORTHEAST NORTH DAKOTA

CITY           SKY/WX    TMP DP  RH WIND       PRES   REMARKS
GRAND FORKS    LGT RAIN  66  64  93 E8        29.88S
GRND FRKS AFB  LGT RAIN  64  62  94 E5        29.88F
DEVILS LAKE    HVY RAIN  61  61 100 E10       29.87F FOG
$$

NDZ022-023-025-028>030-036>039-047>053-160800-
SOUTHEAST NORTH DAKOTA

CITY           SKY/WX    TMP DP  RH WIND       PRES   REMARKS
FARGO          CLOUDY    67  60  78 SE9       29.87S
JAMESTOWN      LGT RAIN  64  62  93 SE12      29.82F
$$





USA.gov is the U.S. government's official web portal to all federal, state and local government web resources and services.